Muskegon, MI

11:08 PM EDT on October 18, 2019 (GMT -0400)
Muskegon County

Weather History for KMKG - August, 2019

Change the Weather History Date:

Monday, August 12, 2019

  Actual Average Record
Temperature  
Mean Temperature 75 °F 71 °F  
Max Temperature 84 °F 79 °F 91 °F (1988)
Min Temperature 66 °F 62 °F 45 °F (1979)
Degree Days  
Heating Degree Days 0 0  
Month to date heating degree days 0 0  
Since 1 June heating degree days 58 77  
Since 1 July heating degree days 1 11  
Cooling Degree Days 10 6  
Month to date cooling degree days 73 72  
Year to date cooling degree days 444 408  
Since 1 June cooling degree days 441 379  
Growing Degree Days 25 (Base 50)    
Moisture  
Dew Point 64 °F    
Average Humidity 69    
Maximum Humidity 87    
Minimum Humidity 51    
Precipitation  
Precipitation 0.00 in 0.11 in 1.06 in (2007)
Month to date precipitation 0.71 1.27  
Year to date precipitation 25.68 18.46  
Snow  
Snow 0.00 in 0.00 in - ()
Month to date snowfall 0.0 0.0  
Since 1 June snowfall 0.0 0.0  
Since 1 July snowfall 0.0 0.0  
Snow Depth 0.00 in    
Sea Level Pressure  
Sea Level Pressure 29.87 in    
Wind  
Wind Speed 5 mph (NW)    
Max Wind Speed 13 mph    
Max Gust Speed 21 mph    
Visibility 10 miles    
Events      
T = Trace of Precipitation, MM = Missing Value Source: NWS Daily Summary

Daily Weather History Graph

Daily Weather History Graph

Search for Another Location

Airport or City:

Astronomy

Aug. 12, 2019 Rise Set
Actual Time 6:47 AM EDT 8:52 PM EDT
Civil Twilight 6:15 AM EDT 9:23 PM EDT
Nautical Twilight 5:37 AM EDT 10:01 PM EDT
Astronomical Twilight 4:55 AM EDT 10:43 PM EDT
Moon 7:25 PM EDT (8/12) 3:51 AM EDT (8/12)
Length of Visible Light 15h 07m
Length of Day
14h 05m
Waxing Gibbous, 93% of the Moon is Illuminated
Aug 12
Waxing Gibbous
Aug 15
Full
Aug 23
Last Quarter
Aug 30
New
Sep 5
First Quarter

Hourly Weather History & Observations

Time (EDT) Temp. Heat Index Dew Point Humidity Pressure Visibility Wind Dir Wind Speed Gust Speed Precip Events Conditions
12:55 AM 73.9 °F - 63.0 °F 68% 29.93 in - Calm Calm - N/A   Overcast
1:55 AM 73.0 °F - 63.0 °F 71% 29.93 in - ENE 4.6 mph - N/A   Overcast
2:55 AM 71.1 °F - 62.1 °F 73% 29.91 in - Calm Calm - N/A   Scattered Clouds
3:55 AM 69.1 °F - 63.0 °F 81% 29.91 in - Calm Calm - N/A   Scattered Clouds
4:55 AM 68.0 °F - 63.0 °F 84% 29.90 in - Calm Calm - N/A   Mostly Cloudy
5:55 AM 68.0 °F - 63.0 °F 84% 29.89 in 10.0 mi Calm Calm - N/A   Overcast
6:55 AM 66.9 °F - 63.0 °F 87% 29.91 in 10.0 mi Calm Calm - N/A   Mostly Cloudy
7:55 AM 70.0 °F - 63.0 °F 78% 29.90 in 10.0 mi Calm Calm - N/A   Mostly Cloudy
8:55 AM 73.9 °F - 63.0 °F 68% 29.91 in 10.0 mi ENE 4.6 mph - N/A   Mostly Cloudy
9:55 AM 79.0 °F - 62.1 °F 56% 29.90 in 10.0 mi Variable 3.5 mph - N/A   Mostly Cloudy
10:55 AM 80.1 °F 81.1 °F 61.0 °F 52% 29.90 in 10.0 mi Variable 3.5 mph - N/A   Mostly Cloudy
11:55 AM 82.0 °F 83.1 °F 63.0 °F 52% 29.90 in 10.0 mi NW 4.6 mph - N/A   Mostly Cloudy
12:55 PM 82.9 °F 84.4 °F 64.0 °F 53% 29.89 in 10.0 mi West 8.1 mph - N/A   Mostly Cloudy
1:55 PM 82.9 °F 84.6 °F 64.9 °F 54% 29.88 in 10.0 mi West 6.9 mph - N/A   Mostly Cloudy
2:55 PM 82.9 °F 84.4 °F 64.0 °F 53% 29.84 in 10.0 mi West 8.1 mph - N/A   Mostly Cloudy
3:55 PM 82.0 °F 83.8 °F 64.9 °F 56% 29.83 in 10.0 mi West 9.2 mph - N/A   Mostly Cloudy
4:55 PM 80.1 °F 81.7 °F 64.0 °F 58% 29.83 in 10.0 mi West 8.1 mph - N/A   Mostly Cloudy
5:55 PM 77.0 °F - 64.9 °F 66% 29.84 in 10.0 mi WNW 10.4 mph - N/A   Overcast
6:55 PM 77.0 °F - 66.9 °F 71% 29.83 in 10.0 mi NW 5.8 mph - N/A   Overcast
7:55 PM 77.0 °F - 66.0 °F 69% 29.83 in 10.0 mi NNW 4.6 mph - N/A   Mostly Cloudy
8:55 PM 75.9 °F - 66.0 °F 71% 29.83 in 10.0 mi North 5.8 mph - N/A   Mostly Cloudy
9:55 PM 75.9 °F - 66.0 °F 71% 29.83 in 10.0 mi North 4.6 mph - N/A   Overcast
10:55 PM 75.0 °F - 66.0 °F 73% 29.81 in 10.0 mi North 4.6 mph - N/A   Overcast
11:55 PM 73.9 °F - 66.0 °F 76% 29.80 in 10.0 mi NNE 5.8 mph - N/A   Partly Cloudy